Regional Weather Roundup
Issued by NWS Northern Indiana

Home | Current Version | Previous Version | Graphics & Text | Print | Product List | Glossary On
Versions: 1 2 3 4 5 6 7 8 9 10 11 12 13 14 15 16 17 18 19 20 21 22 23 24 25 26 27 28 29 30 31 32 33 34 35 36 37 38 39 40 41 42 43 44 45 46 47 48 49 50
000
ASUS43 KIWX 202300
RWRIWX

KIWX WEATHER ROUNDUP
NATIONAL WEATHER SERVICE NORTHERN INDIANA
700 PM EDT SUN APR 20 2014

NOTE: "FAIR" INDICATES FEW OR NO CLOUDS BELOW 12,000 FEET WITH NO
SIGNIFICANT WEATHER AND/OR OBSTRUCTIONS TO VISIBILITY.

* THESE STATIONS ARE NOT UNDER NWS QUALITY CONTROL. THEY ALSO MAY NOT
  REPORT WEATHER SUCH AS PRECIPITATION OR FOG.

INZ001>027-210000-
NORTHERN INDIANA

CITY           SKY/WX    TMP DP  RH WIND       PRES   REMARKS
GARY*          PTSUNNY   77  36  22 S7        30.09S
VALPARAISO     MOSUNNY   74  35  24 S8        30.10F
LAPORTE*       MOSUNNY   73  34  23 SW7       30.11F
SOUTH BEND     MOSUNNY   74  32  21 S6        30.12F
GOSHEN         MOSUNNY   73  32  22 W7        30.12F
MONTICELLO*    SUNNY     73  37  27 S3        30.11F
ANGOLA*        SUNNY     72  36  26 SW6       30.13F
FORT WAYNE     PTSUNNY   73  33  23 SW10      30.14F

$$
INZ028>050-210000-
CENTRAL INDIANA

CITY           SKY/WX    TMP DP  RH WIND       PRES   REMARKS
LAFAYETTE      SUNNY     73  35  25 SE5       30.10F
KOKOMO*          N/A     73  32  21 SE5       30.11F
MUNCIE*        MOSUNNY   72  35  25 SW5       30.13F
INDIANAPOLIS   MOSUNNY   73  35  25 SW5       30.12F

$$
MIZ043>046-050>051-056>058-064>065-071>073-077>080-210000-
SOUTHWEST LOWER MICHIGAN

CITY           SKY/WX    TMP DP  RH WIND       PRES   REMARKS
BATTLE CREEK   MOSUNNY   71  29  21 SW7       30.13F
BENTON HARBOR  MOSUNNY   71  37  28 W6        30.10F
COLDWATER*     MOSUNNY   70  26  19 SW8       30.13S
HILLSDALE*     MOSUNNY   71  26  19 S5        30.14F
HOLLAND        SUNNY     72  37  28 SW8       30.11F
GRAND RAPIDS   MOSUNNY   73  33  23 SW10      30.11F
KALAMAZOO      MOSUNNY   70  27  20 S9        30.12F
STURGIS*       MOSUNNY   70  34  26 SW7       30.12F
THREE RIVERS*  FAIR      72  29  20 SW5       30.13F

$$
OHZ001>008-015>018-024>025-210000-
NORTHWEST OHIO

CITY           SKY/WX    TMP DP  RH WIND       PRES   REMARKS
DEFIANCE       MOSUNNY   73  28  18 S7        30.13F
FINDLAY        MOSUNNY   72  34  24 SW7       30.13F
TOLEDO EXPRESS SUNNY     71  28  20 SW6       30.13F
TOLEDO METCALF SUNNY     65  38  36 E8        30.15F
LIMA           MOSUNNY   73  31  21 S7        30.14F

$$
&&



USA.gov is the U.S. government's official web portal to all federal, state and local government web resources and services.